AO-07 1 07530U 74089B 20100.54382617 -.00000054 00000-0 -58028-4 0 9990 2 07530 101.7932 070.6889 0012406 135.2979 345.7423 12.53642872077357 UO-11 1 14781U 84021B 20100.54259205 .00000084 00000-0 16364-4 0 9997 2 14781 097.5944 115.9309 0009958 071.5396 288.6900 14.83155644921614 LO-19 1 20442U 90005G 20100.45453183 -.00000011 00000-0 12268-4 0 9998 2 20442 098.6857 047.4948 0011860 003.8905 356.2369 14.32949353578674 HUBBLE 1 20580U 90037B 20100.33836163 .00000436 00000-0 15546-4 0 9998 2 20580 028.4701 056.7894 0002907 070.3251 065.8399 15.09366106445510 MET-2/21 1 22782U 93055A 20100.61760112 .00000014 00000-0 -57085-6 0 9997 2 22782 82.5454 288.2134 0023591 69.5112 354.5765 13.83824742343796 AO-27 1 22825U 93061C 20100.52671594 -.00000017 00000-0 11314-4 0 9993 2 22825 098.9242 101.2428 0007798 211.5799 148.4915 14.30081937383965 IO-26 1 22826U 93061D 20100.59922977 -.00000017 00000-0 11215-4 0 9995 2 22826 98.9182 101.2723 0008528 199.2570 160.8291 14.30416996384455 FO-29 1 24278U 96046B 20100.54791918 .00000005 00000-0 41598-4 0 9991 2 24278 098.5736 219.4370 0350223 193.1313 166.0528 13.53097259167562 NOAA-15 1 25338U 98030A 20100.52951443 .00000021 00000-0 27248-4 0 9997 2 25338 098.7241 125.9083 0011571 102.7562 257.4911 14.25958118139152 GO-32 1 25397U 98043D 20100.43029406 -.00000016 00000-0 12328-4 0 9999 2 25397 098.7228 042.4745 0000215 221.0084 139.1078 14.23682402129738 ISS 1 25544U 98067A 20100.87214120 .00000759 00000-0 22160-4 0 9994 2 25544 51.6452 326.5333 0004040 98.3851 81.3165 15.48692848221422 NO-44 1 26931U 01043C 20100.30521651 -.00000016 00000-0 25576-4 0 9992 2 26931 067.0514 320.8407 0005895 265.9725 094.0702 14.30572812967189 SO-50 1 27607U 02058C 20100.51247444 .00000007 00000-0 21745-4 0 9991 2 27607 064.5551 225.1489 0056636 195.1762 164.7645 14.75623367930557 CO-55 1 27844U 03031E 20100.55810051 .00000035 00000-0 35662-4 0 9994 2 27844 98.6843 109.3269 0008705 252.8485 107.1739 14.22230383870347 CO-57 1 27848U 03031J 20100.49438490 .00000025 00000-0 31253-4 0 9995 2 27848 098.6913 109.8143 0008549 266.8003 093.2196 14.21818172870149 RS-22 1 27939U 03042A 20100.83148658 .00000054 00000-0 18395-4 0 9994 2 27939 98.0777 236.6069 0012421 204.9728 155.0880 14.66849615883954 NOAA-18 1 28654U 05018A 20100.45293620 .00000085 00000-0 70483-4 0 9992 2 28654 099.0518 156.2118 0015147 068.1357 292.1423 14.12501543767178 CO-58 1 28895U 05043F 20100.37264184 .00000115 00000-0 30923-4 0 9990 2 28895 097.9977 238.7072 0017868 135.7544 224.5091 14.63754377770509 Falconsat-3 1 30776U 07006E 20100.40608277 .00002205 00000-0 59931-4 0 9993 2 30776 035.4357 001.6784 0003714 275.0084 085.0219 15.37496860726200 CO-65 1 32785U 08021C 20100.62777468 .00000201 00000-0 27209-4 0 9993 2 32785 97.5702 91.6858 0013229 8.7809 351.3637 14.88444384647703 AAUSAT2 1 32788U 08021F 20100.58179959 .00000519 00000-0 52398-4 0 9991 2 32788 97.4933 108.1405 0010073 290.3260 69.6879 14.95001923649128 DO-64 1 32789U 08021G 20100.37640331 .00000772 00000-0 54681-4 0 9994 2 32789 097.4264 145.5709 0012034 184.6157 175.4962 15.07578339651404 CO-66 1 32791U 08021J 20100.54600017 .00000389 00000-0 44666-4 0 9999 2 32791 97.5397 97.7477 0012664 338.9736 21.0961 14.91009907648190 RS-30 1 32953U 08025A 20100.66390439 .00000037 00000-0 19437-3 0 9997 2 32953 82.5037 320.7005 0018633 202.1541 157.8738 12.43094948539080 PRISM 1 33493U 09002B 20100.54129235 .00000126 00000-0 16589-4 0 9999 2 33493 098.1395 037.9993 0013966 286.0929 073.8753 14.96969615609396 NOAA-19 1 33591U 09005A 20100.52277484 .00000013 00000-0 32584-4 0 9997 2 33591 099.1972 104.0738 0012950 269.1190 090.8497 14.12401962575406 TISAT-1 1 36799U 10035E 20100.73188652 .00000418 00000-0 48031-4 0 9999 2 36799 98.1882 268.3884 0012062 189.0622 171.0379 14.91312370528880 JUGNU 1 37839U 11058B 20100.36189354 .00000306 00000-0 21491-4 0 9997 2 37839 019.9622 341.7647 0018825 346.7836 169.6266 14.12676567439001 SRMSAT 1 37841U 11058D 20100.55279919 .00000306 00000-0 22860-4 0 9999 2 37841 019.9730 043.5043 0011827 206.0759 309.7332 14.10654822438422 AO-71 1 37854U 11061E 20100.12576296 .00000445 00000-0 30651-4 0 9999 2 37854 101.7040 155.6186 0158579 267.9281 090.3766 15.07118445461035 HRBE 1 37855U 11061F 20100.42498374 .00000881 00000-0 51562-4 0 9991 2 37855 101.7180 153.2597 0171181 279.7848 78.4072 15.06140219461282 ALMASAT-1 1 38078U 12006B 20100.56621458 .00375911 72015-4 40062-3 0 9995 2 38078 69.4114 121.6501 0039868 160.0252 346.1604 16.08176889444144 HORYU-2 1 38340U 12025D 20100.73366162 .00000156 00000-0 30746-4 0 9991 2 38340 98.2888 152.5738 0010166 258.4808 101.5259 14.75830248424828 RS-40 1 38735U 12041C 20100.76918612 .00000016 00000-0 45947-4 0 9997 2 38735 82.4781 43.4811 0016351 315.3178 44.6580 12.42579384349326 BEESAT-3 1 39135U 13015F 20100.53370146 .00000768 00000-0 46744-4 0 9993 2 39135 064.8671 163.9846 0042074 258.5678 101.0721 15.18056088384751 BEESAT-2 1 39136U 13015G 20100.55343650 .00000854 00000-0 52109-4 0 9994 2 39136 064.8665 168.6608 0028906 281.0335 078.7540 15.17430390384662 ZACUBE-1 1 39417U 13066B 20100.53019882 .00000195 00000-0 30687-4 0 9992 2 39417 097.5650 102.3915 0059822 142.7121 217.8269 14.81246373344839 TRITON-1 1 39427U 13066M 20100.49856067 .00000194 00000-0 39234-4 0 9998 2 39427 097.7188 065.2868 0112372 299.0916 059.9074 14.67975602341542 GOMX-1 1 39430U 13066Q 20100.76258643 .00000219 00000-0 48363-4 0 9999 2 39430 97.7842 43.4618 0152223 41.3389 319.9221 14.59371809339781 LO-74 1 39440U 13066AA 20100.54505475 .00000161 00000-0 29352-4 0 9997 2 39440 97.6269 86.8740 0079460 202.9843 156.7805 14.75984271343615 AO-73 1 39444U 13066AE 20100.56746960 .00000238 00000-0 35287-4 0 9998 2 39444 97.5600 104.6169 0059113 135.2197 225.3811 14.82092558343755 SPROUT 1 39770U 14029E 20100.74619037 .00000796 00000-0 93474-4 0 9995 2 39770 97.8898 207.3488 0008572 185.2800 174.8332 14.87680599318844 DUCHIFAT-1 1 40021U 14033M 20100.35196365 .00000481 00000-0 54662-4 0 9999 2 40021 97.9397 31.1808 0013421 149.4364 210.7638 14.90856590315593 NANOSATCBR1 1 40024U 14033Q 20100.73939716 .00000395 00000-0 46836-4 0 9997 2 40024 97.9254 28.1691 0012678 152.0918 208.0982 14.90033315315529 DTUSAT-2 1 40030U 14033W 20100.52388945 .00000256 00000-0 33430-4 0 9995 2 40030 097.9028 022.4642 0012307 155.5404 204.6399 14.88683055314752 EO-80 1 40032U 14033Y 20100.54038578 .00000260 00000-0 33940-4 0 9994 2 40032 097.9035 022.4825 0012253 156.3886 203.7895 14.88630312314735 ANTELSAT 1 40034U 14033AA 20100.51087152 .00000192 00000-0 35780-4 0 9993 2 40034 097.7237 319.4750 0057587 220.4668 139.2252 14.74229628311720 VELOX-1 1 40057U 14034E 20100.84663562 .00000291 00000-0 48140-4 0 9994 2 40057 98.2675 235.9744 0010991 12.7225 347.4257 14.77835305311503 DAURIA DX 1 1 40071U 14037C 20100.88998697 .00000105 00000-0 21026-4 0 9995 2 40071 98.4554 275.5097 0008579 5.7471 354.3840 14.81349260311108 HODOYOSHI-1 1 40299U 14070B 20100.78454399 .00000596 00000-0 27433-4 0 9991 2 40299 97.3257 179.1075 0014805 79.0943 38.6148 15.23995943301351 CHUBUSAT-1 1 40300U 14070C 20100.80377771 .00000605 00000-0 28984-4 0 9998 2 40300 97.2939 172.0010 0021416 94.0532 45.1315 15.22431009301062 QSAT-EOS 1 40301U 14070D 20100.77918082 .00001687 00000-0 66266-4 0 9997 2 40301 97.2966 176.7837 0026918 72.8237 47.8585 15.26754831301455 FIREBIRD FU3 1 40377U 15003B 20100.53467106 .00001796 00000-0 72633-4 0 9993 2 40377 099.1031 146.6245 0124495 183.7148 176.3170 15.19802577286838 FIREBIRD FU4 1 40378U 15003C 20100.71713427 .00001791 00000-0 72368-4 0 9994 2 40378 99.1032 146.9387 0124685 182.9773 177.0730 15.19818454286871 GRIFEX 1 40379U 15003D 20100.72012604 .00001022 00000-0 47060-4 0 9993 2 40379 99.1106 139.2512 0132894 206.7136 152.7206 15.16227843286431 NO-84 1 40654U 15025D 20099.17368898 .00008697 00000-0 10814-3 0 8998 2 40654 54.9862 264.3615 0120930 7.3913 352.8837 15.52643101158109 DEORBITSAIL 1 40719U 15032E 20100.46722461 .00000371 00000-0 59776-4 0 9996 2 40719 097.8782 350.7803 0017850 071.8735 288.4418 14.76952735255918 NUDT-PHONESAT 1 40900U 15049B 20100.79017485 .00001929 00000-0 82865-4 0 9990 2 40900 97.4342 112.3428 0011386 218.7533 315.9623 15.23845963252737 XW-2A 1 40903U 15049E 20100.70795429 .00001869 00000-0 44484-4 0 9993 2 40903 97.2962 149.5888 0014095 146.3627 2.0604 15.42838455255878 XW-2C 1 40906U 15049H 20100.86647050 .00000743 00000-0 42086-4 0 9995 2 40906 97.4767 103.2308 0012994 250.7637 195.6834 15.15998907251865 XW-2D 1 40907U 15049J 20100.73870470 .00000755 00000-0 42463-4 0 9998 2 40907 97.4748 102.8013 0012426 247.5457 199.6473 15.16221439251860 LILACSAT-2 1 40908U 15049K 20100.78934823 .00000161 00000-0 12492-4 0 9997 2 40908 97.4897 101.2985 0014176 258.2789 276.6328 15.13996222251601 XW-2E 1 40909U 15049L 20100.75785948 .00001027 00000-0 53328-4 0 9992 2 40909 97.4635 106.1837 0011886 238.1678 294.6447 15.18306810252102 XW-2F 1 40910U 15049M 20100.86800735 .00001059 00000-0 55653-4 0 9996 2 40910 97.4677 105.3986 0013086 236.2456 209.1084 15.17817826251934 XW-2B 1 40911U 15049N 20100.71925706 .00000706 00000-0 40019-4 0 9995 2 40911 97.4761 103.4736 0012386 248.2935 198.6941 15.16148083251753 DCBB 1 40912U 15049P 20100.78879294 .00000933 00000-0 46196-4 0 9997 2 40912 97.4504 109.3958 0013730 213.0556 321.9412 15.20192350252287 TW-1C 1 40926U 15051B 20100.81350267 .00018209 00000-0 19962-3 0 9998 2 40926 97.0933 152.2282 0005771 5.6110 84.6540 15.63280813256297 TW-1A 1 40928U 15051D 20100.70069491 .00002604 00000-0 62368-4 0 9995 2 40928 97.1165 130.1946 0012518 79.6128 15.6332 15.42253036254774 IO-86 1 40931U 15052B 20100.65893719 .00000717 00000-0 10725-4 0 9995 2 40931 5.9960 106.1065 0013429 24.2183 335.8359 14.76631669245079 LQSat 1 40958U 15057A 20100.44663402 .00000010 00000-0 91386-5 0 9999 2 40958 097.8593 166.0439 0018411 016.3786 343.8013 14.73113994242354 ATHENOXAT-1 1 41168U 15077C 20100.66743281 .00002049 00000-0 71938-4 0 9997 2 41168 14.9874 206.0622 0011385 251.1688 108.7398 15.14242131238904 ChubuSat-2 1 41338U 16012B 20100.30870629 .00000308 00000-0 17199-4 0 9999 2 41338 031.0036 065.9297 0013784 151.9676 208.1704 15.00269630227342 ChubuSat-3 1 41339U 16012C 20100.90969040 .00000311 00000-0 17368-4 0 9994 2 41339 31.0117 59.8309 0013587 166.7632 193.3363 15.00436783227437 Horyu-4 1 41340U 16012D 20100.56054198 .00000492 00000-0 30431-4 0 9993 2 41340 31.0058 50.5060 0014032 185.2377 174.8114 15.01458992227517 OUFTI-1 1 41458U 16025C 20100.48533251 .00001731 00000-0 89451-4 0 9993 2 41458 098.0983 207.4522 0165585 082.1115 279.8869 15.06689002217096 e-st@r-II 1 41459U 16025D 20100.84339964 .00001989 00000-0 10306-3 0 9996 2 41459 98.0959 207.2938 0166533 82.8394 279.1766 15.06260969217118 AAUSAT4 1 41460U 16025E 20100.75198176 .00002322 00000-0 11633-3 0 9992 2 41460 98.0970 209.2931 0155702 72.8036 289.0172 15.08498758217286 LO-87 1 41557U 16033B 20100.74633308 .00001196 00000-0 46613-4 0 9993 2 41557 97.4023 191.4306 0012768 337.8545 22.2141 15.27866958215289 NuSat2 1 41558U 16033C 20100.73504829 .00001334 00000-0 48761-4 0 9998 2 41558 97.4070 193.4689 0011757 336.1499 23.9195 15.29833480215389 Lapan A3 1 41603U 16040E 20100.86711815 .00000203 00000-0 12551-4 0 9998 2 41603 97.3169 156.5280 0015164 82.5854 4.2558 15.19817232210722 Swayam 1 41607U 16040J 20100.59393383 .00001555 00000-0 66813-4 0 9999 2 41607 97.3248 161.5688 0014828 72.7964 287.4895 15.24051397210931 Pratham 1 41783U 16059A 20100.39746417 .00000054 00000-0 19538-4 0 9997 2 41783 98.0245 157.7718 0033863 171.4246 188.7542 14.63046867188789 AlSat 1N 1 41789U 16059G 20100.74781051 .00000070 00000-0 22133-4 0 9998 2 41789 98.0272 160.7702 0028827 157.8612 202.3840 14.64308447188972 ScatSat 1 41790U 16059H 20100.84820614 .00000009 00000-0 13242-4 0 9993 2 41790 98.1696 143.1477 0006576 123.2082 236.9739 14.50906094187273 TY-1 1 41844U 16066D 20100.91764120 .00000807 00000-0 35455-4 0 9994 2 41844 97.4043 109.8529 0013657 220.8048 203.3649 15.24742415189820 Pegasus-1 1 41846U 16066F 20100.39320340 .00000216 00000-0 42039-4 0 9990 2 41846 098.6701 149.6953 0368101 078.9011 285.3329 14.37735766179040 CAS-2T 1 41847U 16066G 20100.39516057 .00000058 00000-0 18413-4 0 9996 2 41847 098.6629 150.1822 0366801 074.7610 289.3816 14.38054234179495 EO-88 1 42017U 17008BX 20100.45368345 .00001441 00000-0 58331-4 0 9995 2 42017 097.3655 169.0102 0005819 190.2104 169.9018 15.26299558175021 nSIGHT1 1 42726U 98067MF 20100.54854890 .00347170 66483-4 47528-3 0 9999 2 42726 51.6245 213.6932 0008856 323.4121 36.6286 16.05567422164623 CAS-4B 1 42759U 17034B 20100.74669316 .00000224 00000-0 27128-4 0 9999 2 42759 43.0190 44.5386 0012398 314.9088 123.1162 15.09783563155589 CAS-4A 1 42761U 17034D 20100.89762200 .00000327 00000-0 33313-4 0 9991 2 42761 43.0195 43.0552 0012804 316.2527 146.7442 15.09862834155605 UCLSat 1 42765U 17036A 20100.58463986 .00001187 00000-0 52795-4 0 9992 2 42765 97.3089 156.6519 0009562 268.2579 91.7563 15.23371613155505 NIUSat 1 42766U 17036B 20100.42112853 .00000797 00000-0 38260-4 0 9997 2 42766 97.3086 154.1518 0013759 261.4348 98.5329 15.21597417155197 LituanicaSAT 2 1 42768U 17036D 20100.45276201 .00002001 00000-0 85847-4 0 9993 2 42768 097.3142 156.3950 0013020 257.1016 102.8767 15.23808096155332 Aalto 1 1 42775U 17036L 20100.41081605 .00000643 00000-0 31328-4 0 9994 2 42775 097.3068 154.4915 0012147 260.8557 099.1306 15.21739445155175 URSA MAIOR 1 42776U 17036M 20100.40819226 .00000729 00000-0 34950-4 0 9991 2 42776 097.3079 154.7444 0011963 260.6211 099.3672 15.21911290155187 Max Valier Sat 1 42778U 17036P 20100.59815947 .00000894 00000-0 41517-4 0 9999 2 42778 97.3130 156.1131 0010471 263.0548 96.9498 15.22495668155253 Pegasus 1 42784U 17036V 20100.59603389 .00001109 00000-0 49935-4 0 9993 2 42784 97.3094 156.3795 0010130 269.2714 90.7362 15.23069089155293 NUDATSat 1 42787U 17036Y 20100.77621140 .00001643 00000-0 70020-4 0 9993 2 42787 97.3145 157.7969 0009916 271.9351 88.0750 15.24305222155236 SUCHAI 1 1 42788U 17036Z 20100.44749922 .00001332 00000-0 58526-4 0 9999 2 42788 97.3102 156.7610 0009677 268.0010 92.0119 15.23590294155378 SKCUBE 1 42789U 17036AA 20100.42099763 .00001083 00000-0 48347-4 0 9992 2 42789 097.3096 156.6080 0009559 268.4217 091.5925 15.23443396155282 VZLUSAT 1 1 42790U 17036AB 20100.50212510 .00001668 00000-0 71072-4 0 9990 2 42790 097.3120 157.5248 0009080 265.4462 094.5738 15.24295826155342 VENTA 1 1 42791U 17036AC 20100.46013781 .00001070 00000-0 47815-4 0 9990 2 42791 097.3095 156.6920 0009223 268.9683 091.0497 15.23435161155287 Robusta 1B 1 42792U 17036AD 20100.18622182 .00001117 00000-0 49511-4 0 9998 2 42792 97.3098 156.6094 0009131 269.9265 90.0926 15.23629091155270 D-SAT 1 42794U 17036AF 20100.66559501 .00000111 00000-0 15171-4 0 9995 2 42794 97.5017 136.6998 0124988 234.1614 124.7943 14.91246320152440 TechnoSat 1 42829U 17042E 20100.70002073 .00000254 00000-0 30899-4 0 9995 2 42829 97.5296 345.6714 0014899 148.7480 211.4628 14.91076669149049 QIKCOM-1 1 42983U 98067NF 20100.75739995 .00004803 00000-0 62130-4 0 9994 2 42983 51.6384 291.6652 0004133 153.2441 206.8766 15.61013544139555 AO-91 1 43017U 17073E 20100.51192522 .00000465 00000-0 42320-4 0 9993 2 43017 097.7253 015.4012 0255693 275.0412 082.1662 14.78875424128976 EcAMSat 1 43019U 98067NG 20100.76899942 .00009954 00000-0 10407-3 0 9996 2 43019 51.6400 279.8171 0004187 144.0289 216.0989 15.65163611222037 PICSAT 1 43132U 18004X 20100.45353557 .00001136 00000-0 49488-4 0 9994 2 43132 097.4520 172.2072 0008043 301.0585 058.9862 15.24244740124547 AO-92 1 43137U 18004AC 20100.41377037 .00000909 00000-0 40499-4 0 9994 2 43137 97.4507 172.0295 0007688 304.1448 55.9060 15.23989074124528 TianYi 2 1 43155U 18008A 20100.77544461 .00000362 00000-0 25059-4 0 9992 2 43155 97.4518 171.6027 0018459 30.1111 117.6604 15.11535299122542 Zhou Enlai 1 43156U 18008B 20100.77943988 .00000615 00000-0 40420-4 0 9990 2 43156 97.4565 171.4617 0015504 30.0484 88.1949 15.11071676122502 TianYi 6 1 43158U 18008D 20100.77587897 .00000545 00000-0 36738-4 0 9994 2 43158 97.4527 170.6024 0014588 28.1044 87.4164 15.10615204122451 S-Net G 1 43186U 18014G 20100.32459539 -.00000327 00000-0 -23500-4 0 9997 2 43186 97.6981 9.2724 0012408 94.6229 265.6410 14.96778328119353 S-Net H 1 43187U 18014H 20100.45811684 -.00000308 00000-0 -21831-4 0 9999 2 43187 097.6979 009.3842 0012413 094.1671 266.0970 14.96778297119378 S-Net J 1 43188U 18014J 20100.52482780 -.00000305 00000-0 -21585-4 0 9992 2 43188 97.6982 9.4770 0012399 94.0358 266.2281 14.96778088119384 S-Net K 1 43189U 18014K 20100.45837023 -.00000321 00000-0 -22955-4 0 9999 2 43189 097.6978 009.3803 0012392 094.1844 266.0794 14.96777314117926 FMN 1 1 43192U 18015A 20100.72285869 .00001960 00000-0 80408-4 0 9994 2 43192 97.4306 230.6021 0015025 337.5304 141.9058 15.25352413121421 Shaonian Xing 1 43199U 18015H 20100.79926125 .00001404 00000-0 58005-4 0 9996 2 43199 97.4090 229.1278 0016372 347.1900 180.5267 15.25581483121499 1KUNS-PF 1 43466U 98067NP 20100.68851496 .00113636 00000-0 39965-3 0 9998 2 43466 51.6291 254.7939 0004197 285.4012 74.6529 15.88314747109530 UBAKUSAT 1 43467U 98067NQ 20100.77580688 .00029456 00000-0 22377-3 0 9996 2 43467 51.6333 274.3496 0001097 157.0738 203.0309 15.72056282109296 EnduroSat One 1 43551U 98067NZ 20100.74357343 .00045450 00000-0 29341-3 0 9997 2 43551 51.6342 274.1057 0004533 208.1189 151.9566 15.75629643 99527 EQUISat 1 43552U 98067PA 20100.79466024 .00028808 00000-0 22932-3 0 9997 2 43552 51.6357 280.5690 0005007 195.2401 164.8446 15.70941914 99408 UiTMSat 1 1 43589U 98067PD 20100.79235091 .00036452 00000-0 26757-3 0 9998 2 43589 51.6325 279.6456 0004612 207.4225 152.6531 15.72746327 95154 Maya 1 1 43590U 98067PE 20100.78532660 .00034143 00000-0 25101-3 0 9998 2 43590 51.6316 279.6072 0004707 209.6311 150.4421 15.72742435 95087 Bhutan 1 1 43591U 98067PF 20100.50905164 .00034803 00000-0 25490-3 0 9996 2 43591 051.6334 280.8185 0004813 206.9628 153.1121 15.72821071095043 SiriusSat 1 1 43595U 98067PG 20100.52819011 .00029146 00000-0 23222-3 0 9992 2 43595 051.6324 284.6606 0002749 176.9220 183.1795 15.70922239094175 SiriusSat 2 1 43596U 98067PH 20100.58528848 .00030207 00000-0 24153-3 0 9998 2 43596 51.6333 285.1101 0003137 172.0303 188.0745 15.70816335 94171 Tanusha-3 1 43597U 98067PJ 20100.55265577 .00051863 00000-0 30787-3 0 9994 2 43597 51.6308 276.4598 0002818 216.1451 143.9360 15.77485877 94281 SurfSat 1 43614U 18070B 20100.54787106 .00002588 00000-0 67443-4 0 9996 2 43614 93.0224 126.1151 0012835 237.6862 122.3150 15.38858323 87881 CP-7 DAVE 1 43615U 18070C 20100.50814599 .00002485 00000-0 65033-4 0 9999 2 43615 093.0225 126.0929 0012985 237.4312 122.5689 15.38730551087879 ELFIN-B 1 43616U 18070D 20100.54068224 .00003821 00000-0 96039-4 0 9995 2 43616 093.0186 126.0295 0013405 239.6977 120.2952 15.39929928087913 ELFIN-A 1 43617U 18070E 20100.51661360 .00003992 00000-0 99850-4 0 9996 2 43617 093.0240 126.4740 0012814 235.5637 124.4407 15.40081994087910 STARS-Me Mother 1 43640U 98067PQ 20100.27008157 .00014821 00000-0 15871-3 0 9991 2 43640 051.6349 298.7962 0004767 134.0975 226.0412 15.64086671085894 CubeBel 1 1 43666U 18083E 20100.89472314 .00000824 00000-0 43671-4 0 9995 2 43666 97.4957 128.0187 0013431 235.4870 246.6655 15.18125868 80216 Changshagaoxin 1 43669U 18083H 20100.75782051 .00000716 00000-0 39385-4 0 9992 2 43669 97.4835 126.2851 0009621 226.3279 133.7158 15.17192151 80111 Ten-Koh 1 43677U 18084G 20100.39948933 .00000198 00000-0 26230-4 0 9994 2 43677 097.8730 217.6672 0016679 031.0583 329.1617 14.90266024078652 PO-101 1 43678U 18084H 20100.84916245 .00000187 00000-0 24305-4 0 9995 2 43678 97.8729 219.2965 0011211 48.4496 311.7629 14.91620189 78798 IRVINE 01 1 43693U 18088D 20100.55627349 .00002255 00000-0 95040-4 0 9990 2 43693 85.0320 122.6168 0017946 176.6683 183.4682 15.22569235 78361 QO-100 1 43700U 18090A 20100.50449003 .00000128 00000-0 00000-0 0 9991 2 43700 000.0165 217.4438 0002745 194.0373 354.1640 01.00274289005014 Reaktor Hello World 1 43743U 18096AA 20100.85843292 .00001165 00000-0 46247-4 0 9999 2 43743 97.4247 175.0690 0018347 16.0013 119.9106 15.27251215 75929 MinXSS-2 1 43758U 18099A 20100.15466380 .00000729 00000-0 70653-4 0 9993 2 43758 097.7111 173.2118 0017023 064.4719 295.8260 14.95617352073591 AO-95 1 43770U 18099N 20100.76888751 .00000109 00000-0 15156-4 0 9993 2 43770 97.7106 173.3315 0016043 69.0812 291.2124 14.94946550 73655 RANGE-B 1 43772U 18099Q 20100.46290030 .00000350 00000-0 37044-4 0 9997 2 43772 097.7167 173.4627 0015325 058.7813 301.4907 14.95118734073603 RANGE-A 1 43773U 18099R 20100.15639358 .00000413 00000-0 42996-4 0 9996 2 43773 097.7050 172.4225 0014894 059.7133 300.5559 14.94936048073556 MOVE-II 1 43780U 18099Y 20100.46856590 .00000593 00000-0 58881-4 0 9996 2 43780 097.7103 173.2027 0014875 068.8491 291.4318 14.95329628073607 SNUSat 2 1 43782U 18099AA 20100.47483998 .00000586 00000-0 58434-4 0 9993 2 43782 97.7100 173.2294 0013966 58.7849 301.4739 14.95216001 73617 SnugLite 1 43784U 18099AC 20100.44763018 -.00000119 00000-0 -55429-5 0 9992 2 43784 097.7067 173.0486 0016428 064.9908 295.3016 14.95309784073624 ITASat 1 1 43786U 18099AE 20100.51383944 -.00000150 00000-0 -83997-5 0 9994 2 43786 97.7120 173.4509 0016530 63.8629 296.4290 14.95290690 73630 EAGLET 1 1 43790U 18099AJ 20100.45647953 -.00000024 00000-0 30141-5 0 9997 2 43790 097.7107 173.6185 0014824 068.6391 291.6411 14.95670339073336 ESEO 1 43792U 18099AL 20100.46223633 -.00000004 00000-0 47887-5 0 9998 2 43792 97.7081 173.4814 0014576 65.8295 294.4448 14.95580324 73393 CSIM 1 43793U 18099AM 20100.45952222 .00000315 00000-0 33184-4 0 9999 2 43793 097.7070 173.4221 0014166 064.4234 295.8449 14.95975325073370 Astrocast 0.1 1 43798U 18099AS 20100.78815700 -.00000133 00000-0 -67335-5 0 9995 2 43798 97.7100 174.0305 0013444 49.3674 310.8714 14.95842421 73684 JO-97 1 43803U 18099AX 20100.73705293 .00000539 00000-0 53789-4 0 9997 2 43803 97.7077 173.5061 0016442 64.1698 296.1217 14.95456688 73667 Suomi 100 1 43804U 18099AY 20100.46976552 .00000478 00000-0 48301-4 0 9992 2 43804 097.7075 173.2343 0016527 065.0765 295.2171 14.95447187073635 Al Farabi 2 1 43805U 18099AZ 20100.71691059 .00000021 00000-0 70555-5 0 9998 2 43805 97.7084 173.5432 0016526 63.8664 296.4255 14.95558105 73674 PWSat 2 1 43814U 18099BJ 20100.46037131 .00024329 00000-0 15287-2 0 9990 2 43814 097.7821 179.9630 0008970 102.0507 258.1649 15.09213907073305 CHOMPTT 1 43855U 18104G 20100.77220049 .00001168 00000-0 48013-4 0 9999 2 43855 85.0368 220.6176 0016110 311.6872 48.2989 15.22857918 73073 ISAT 1 43879U 18111D 20100.74894726 .00000624 00000-0 60412-4 0 9992 2 43879 97.7059 9.2714 0014569 111.7839 248.4934 14.96191688 68212 UWE-4 1 43880U 18111E 20100.53962632 .00000217 00000-0 24192-4 0 9996 2 43880 97.7068 9.2993 0013581 113.1237 247.1417 14.96423133 68196 Sparrow 1 43881U 18111F 20100.52448191 -.00000139 00000-0 -71290-5 0 9992 2 43881 97.7079 9.3460 0013709 110.8226 249.4465 14.96485043 68188 Lume 1 1 43908U 18111AJ 20100.47870779 .00001186 00000-0 50189-4 0 9991 2 43908 097.2715 002.4253 0022295 031.1421 329.1133 15.24902179071511 FO-98 1 43933U 19003B 20100.91847815 .00000664 00000-0 31867-4 0 9996 2 43933 97.2395 153.2512 0019526 120.4071 54.2194 15.22014429 68106 FO-99 1 43937U 19003F 20100.84296345 .00001245 00000-0 53462-4 0 9999 2 43937 97.2348 154.2281 0025811 105.7620 342.6052 15.24221687 68185 Delphini 1 1 44030U 98067PW 20100.56425455 .00019742 00000-0 21144-3 0 9998 2 44030 051.6346 303.7717 0004510 179.6225 180.4774 15.63839610067723 MYSat 1 1 44045U 18092F 20100.18409678 .00002217 00000-0 72386-4 0 9995 2 44045 51.6462 18.5399 0012320 75.8557 284.3793 15.36324435 64645 AstroCast 0.2 1 44083U 19018F 20100.69793056 .00000794 00000-0 38266-4 0 9995 2 44083 97.4281 162.6715 0014577 57.5776 302.6868 15.21521561 56925 AISTechSat 3 1 44103U 19018AB 20100.84706380 .00000736 00000-0 34152-4 0 9995 2 44103 97.4158 162.9446 0015162 71.3031 19.2700 15.23053458 56994 AISat 1 1 44104U 19018AC 20100.28301907 .00000956 00000-0 32946-4 0 9993 2 44104 097.4694 169.5045 0060020 098.3339 262.4713 15.30944055057224 Raavana-1 1 44329U 98067QE 20100.59370644 .00010904 00000-0 15703-3 0 9996 2 44329 51.6391 319.0583 0006802 108.4651 251.7081 15.56579177 46275 Uguisu 1 44330U 98067QF 20100.02508612 .00009561 00000-0 13898-3 0 9994 2 44330 051.6392 322.0077 0006822 105.2013 254.9733 15.56495847046167 NepaliSat-1 1 44331U 98067QG 20100.33055863 .00010531 00000-0 15178-3 0 9996 2 44331 51.6390 320.3003 0006822 108.9041 251.2691 15.56601797 46220 Prox-1 1 44339U 19036A 20100.58658857 .00001055 00000-0 20119-3 0 9994 2 44339 24.0030 185.1950 0011220 116.8494 243.3148 14.52920618 42102 Oculus-ASR 1 44348U 19036K 20100.75186221 .00012146 00000-0 18201-3 0 9996 2 44348 28.5209 113.5191 0372395 295.4291 60.8221 15.01244032 43461 Armadillo 1 44352U 19036P 20100.41652880 .00017473 00000-0 26260-3 0 9995 2 44352 028.5358 113.0618 0362390 295.5853 060.7709 15.03400314043390 NO-104 1 44354U 19036R 20100.39678821 .00015688 00000-0 23363-3 0 9994 2 44354 028.5322 113.7827 0369160 294.0634 062.1753 15.02186209043427 NO-103 1 44355U 19036S 20100.36576092 .00028555 00000-0 41310-3 0 9998 2 44355 28.5320 108.6594 0352330 302.3956 54.3007 15.06398574 43464 CP9 1 44360U 19036X 20100.67983448 .00045323 -57067-5 54769-3 0 9990 2 44360 28.5188 96.9755 0338997 321.9850 35.7411 15.12278105 43481 Move-IIb 1 44398U 19038N 20100.47276999 .00001138 00000-0 69268-4 0 9993 2 44398 097.5295 062.6196 0025688 009.0450 351.1238 15.12173769042151 SONATE 1 44400U 19038Q 20100.49215505 .00000575 00000-0 37196-4 0 9994 2 44400 097.5326 062.6576 0025505 007.3050 352.8547 15.11888470042159 BeeSat 9 1 44412U 19038AC 20100.58739356 .00001004 00000-0 61645-4 0 9996 2 44412 97.5316 62.8140 0023242 13.0297 347.1529 15.12186922 41861 JAISAT-1 1 44419U 19038F 20100.49735945 .00001039 00000-0 62830-4 0 9998 2 44419 097.5316 062.9374 0022082 012.8599 347.3190 15.12669461042176 LightSail-2 1 44420U 19036AC 20100.48076605 .00006566 00000-0 14418-2 0 9995 2 44420 024.0100 183.4454 0020196 082.1041 278.2040 14.55050224040269 Taurus 1 1 44530U 19059C 20100.78935544 .00000908 00000-0 27054-3 0 9996 2 44530 98.5698 181.2189 0014290 11.0261 349.1213 14.45410824 30425 MO-106 1 44830U 19084G 20100.60064818 .00045231 00000-0 33410-3 0 9996 2 44830 96.9852 329.3692 0033757 139.2398 221.1402 15.72058370 19611 TRSI-Sat 1 44831U 19084H 20098.37284818 .00034128 00000-0 25560-3 0 9991 2 44831 96.9872 327.1526 0033780 146.6182 213.7221 15.71781269 19272 MO-105 1 44832U 19084J 20100.70271522 .00043163 00000-0 31082-3 0 9996 2 44832 96.9860 329.5400 0032925 137.8626 222.5179 15.72700410 19632 Duchifat 3 1 44854U 19089C 20100.82047915 .00000344 00000-0 34276-4 0 9998 2 44854 36.9669 143.9458 0008580 234.4519 125.5427 14.99016911 17992 OPS-SAT 1 44878U 19092F 20100.30189121 -.00000066 00000-0 00000-0 0 9993 2 44878 097.4660 284.7555 0013140 231.2049 128.8090 15.15352325017065 FloripaSat 1 1 44885U 19093G 20100.72711126 .00000241 00000-0 37089-4 0 9999 2 44885 97.9606 177.3150 0013283 271.3635 88.6067 14.81996716 16527 SwampSat-2 1 45115U 19071E 20100.37647031 .00009652 00000-0 29926-3 0 9991 2 45115 051.6434 336.9789 0013578 164.3562 195.7842 15.33998675010516 HuskySat-1 1 45119U 19071J 20100.51303628 .00001694 00000-0 63284-4 0 9996 2 45119 051.6446 336.3886 0012607 162.6360 197.5055 15.33326970010546 QARMAN 1 45257U 98067RA 20100.48418132 .00005010 00000-0 94476-4 0 9997 2 45257 051.6421 328.0737 0009061 107.1360 253.0622 15.50367098007807 AztechSat-1 1 45258U 98067RB 20100.48588037 .00004623 00000-0 88085-4 0 9998 2 45258 051.6419 328.0832 0006987 090.0112 270.1677 15.50279616007774 /EX
